09:33
Airports
History
Links
Donate
Help keep this website running!
PayPal
Bitcoin
This page is community maintained. The information is intended for PC simulator navigation or reference.
Always use approved charts for navigation.
LIBG
GROTTAGLIE
GROTTAGLIE (LIBG)
Grottaglie, Puglia, Italy (74023)
(C)
Lat/Lng:40° 31' 3.05" N / 17° 24' 11.56" E
40.517513 / 17.403211
Elevation:215'ft / 66mMSL
ID / ICAO:LIBG
Runways:1
Longest:17-35
Asphalt 3,203m / 10,507ft
Controlled:Yes
METAR08:50 GMT 2018-02-20
Altimeter: 29.74
Visibility: 6.2 statute miles
Wind: 0 knots (from 000°)
Temp: 11°c / 52°f
Humidity: 87.5%

METAR: LIBG 200850Z 00000KT 9999 SCT030 11/09 Q1007

(Powered by phpweather)
Airport Radio Frequencies
Tower: 118.7
Approach: 118.7, 122.1
Nearby VORs <50NM
Nearby NDBs
Runway 17 / 35
Dimensions:3202.6 x 45.1m 10507' x 148'ft
Surface:Asphalt
Edge Lights:Medium intensity
Runway 17 [A]Runway 35 [B]
Heading:168°TH 348°TH
Lat:
Lng:
40° 31' 53.87"N
17° 23' 58.19"E
40° 30' 12.22"N
17° 24' 24.93"E
ALS:ALSF-I
TDZ:Yes, lighted
User Notes and Comments
40° 31' 3.05" N / 17° 24' 11.56" E
Distance To
Airport ID:
Nearby Airports
(C) BRINDISI/Casale 30.0 NM
LIBR ( WX ) ENE 70°
(C) GIOIA DEL COLLE 30.1 NM
LIBV ( WX ) NW 305°
(C) LECCE 43.0 NM
LIBN ( WX ) ESE 116°
(C) Lecce Lepore 48.1 NM
LINL ESE 103°
(C) Bari Palese Macchie 54.5 NM
LIBD ( WX ) NW 321°
(U) CROTONE 106.4 NM
LIBC ( WX ) S 189°
(C) AMENDOLA 112.9 NM
LIBA ( WX ) NW 308°
VFR Chart
Flight Planning at SkyVector.com